Hourly Weather Golce

Today, 18 May, Tuesday

Time Temperature Precipitation Wind Pressure Humidity
00:00 +10°C° 0 mm 2 mps 743 mmHg 93%
01:00 +10°C° 0 mm 2 mps 744 mmHg 93%
02:00 +10°C° 0 mm 2 mps 744 mmHg 94%
03:00 +9°C° 0 mm 2 mps 744 mmHg 94%
04:00 +9°C° 0 mm 2 mps 744 mmHg 95%
05:00 +10°C° 0 mm 2 mps 744 mmHg 92%
06:00 +12°C° 0 mm 2 mps 745 mmHg 89%
07:00 +12°C° 0 mm 3 mps 745 mmHg 86%
08:00 +12°C° 0.2 mm 3 mps 745 mmHg 82%
09:00 +13°C° 0.2 mm 3 mps 745 mmHg 77%
10:00 +14°C° 0.2 mm 3 mps 745 mmHg 73%
11:00 +15°C° 0.6 mm 4 mps 745 mmHg 72%
12:00 +15°C° 0.6 mm 4 mps 745 mmHg 71%
13:00 +15°C° 0.6 mm 4 mps 745 mmHg 70%
14:00 +15°C° 0.5 mm 4 mps 746 mmHg 72%
15:00 +15°C° 0.5 mm 4 mps 746 mmHg 74%
16:00 +14°C° 0.5 mm 4 mps 746 mmHg 76%
17:00 +13°C° 0.4 mm 3 mps 746 mmHg 80%
18:00 +12°C° 0.4 mm 3 mps 746 mmHg 85%
19:00 +11°C° 0.4 mm 3 mps 747 mmHg 89%
20:00 +10°C° 0 mm 3 mps 747 mmHg 92%
21:00 +9°C° 0 mm 2 mps 747 mmHg 94%
22:00 +8°C° 0 mm 2 mps 747 mmHg 96%
23:00 +8°C° 0 mm 2 mps 747 mmHg 96%

Tomorrow, 19 May, Wednesday

Time Temperature Precipitation Wind Pressure Humidity
00:00 +7°C° 0 mm 2 mps 747 mmHg 96%
01:00 +7°C° 0 mm 2 mps 747 mmHg 96%
02:00 +6°C° 0 mm 2 mps 748 mmHg 96%
03:00 +6°C° 0 mm 2 mps 748 mmHg 96%
04:00 +6°C° 0 mm 2 mps 748 mmHg 96%
05:00 +7°C° 0 mm 2 mps 748 mmHg 92%
06:00 +9°C° 0 mm 3 mps 748 mmHg 89%
07:00 +10°C° 0 mm 3 mps 749 mmHg 85%
08:00 +12°C° 0.1 mm 3 mps 749 mmHg 78%
09:00 +13°C° 0.1 mm 3 mps 749 mmHg 70%
10:00 +14°C° 0.1 mm 4 mps 749 mmHg 62%
11:00 +14°C° 0.2 mm 4 mps 749 mmHg 65%
12:00 +13°C° 0.2 mm 4 mps 749 mmHg 67%
13:00 +13°C° 0.2 mm 4 mps 749 mmHg 70%
14:00 +13°C° 0.2 mm 4 mps 749 mmHg 70%
15:00 +12°C° 0.2 mm 4 mps 750 mmHg 70%
16:00 +12°C° 0.2 mm 4 mps 750 mmHg 70%
17:00 +12°C° 0 mm 3 mps 750 mmHg 71%
18:00 +12°C° 0 mm 2 mps 750 mmHg 72%
19:00 +10°C° 0 mm 2 mps 751 mmHg 74%
20:00 +9°C° 0 mm 2 mps 751 mmHg 77%
21:00 +8°C° 0 mm 2 mps 751 mmHg 80%
22:00 +7°C° 0 mm 2 mps 751 mmHg 84%
23:00 +6°C° 0 mm 2 mps 751 mmHg 85%

Day after tomorrow, 20 May, Thursday

Time Temperature Precipitation Wind Pressure Humidity
00:00 +6°C° 0 mm 2 mps 751 mmHg 86%
01:00 +7°C° 0 mm 1 mps 751 mmHg 87%
02:00 +6°C° 0 mm 2 mps 751 mmHg 89%
03:00 +5°C° 0 mm 2 mps 752 mmHg 92%
04:00 +5°C° 0 mm 2 mps 752 mmHg 94%
05:00 +7°C° 0 mm 2 mps 752 mmHg 88%
06:00 +9°C° 0 mm 2 mps 752 mmHg 82%
07:00 +12°C° 0 mm 2 mps 752 mmHg 76%
08:00 +11°C° 0.1 mm 3 mps 753 mmHg 75%
09:00 +11°C° 0.1 mm 3 mps 753 mmHg 75%
10:00 +12°C° 0.1 mm 4 mps 753 mmHg 74%
11:00 +12°C° 0.2 mm 4 mps 753 mmHg 70%
12:00 +13°C° 0.2 mm 4 mps 753 mmHg 67%
13:00 +13°C° 0.2 mm 5 mps 753 mmHg 63%
14:00 +13°C° 0 mm 5 mps 753 mmHg 61%
15:00 +13°C° 0 mm 5 mps 753 mmHg 59%
16:00 +13°C° 0 mm 5 mps 754 mmHg 57%
17:00 +12°C° 0 mm 4 mps 754 mmHg 61%
18:00 +11°C° 0 mm 3 mps 754 mmHg 64%
19:00 +10°C° 0 mm 3 mps 754 mmHg 67%
20:00 +9°C° 0 mm 2 mps 754 mmHg 73%
21:00 +7°C° 0 mm 2 mps 754 mmHg 80%
22:00 +6°C° 0 mm 2 mps 754 mmHg 86%
23:00 +6°C° 0 mm 2 mps 754 mmHg 88%

21 May, Friday

Time Temperature Precipitation Wind Pressure Humidity
00:00 +5°C° 0 mm 2 mps 754 mmHg 90%
01:00 +5°C° 0 mm 2 mps 754 mmHg 92%
02:00 +5°C° 0 mm 2 mps 754 mmHg 91%
03:00 +5°C° 0 mm 2 mps 754 mmHg 90%
04:00 +5°C° 0 mm 2 mps 754 mmHg 89%
05:00 +5°C° 0 mm 3 mps 754 mmHg 82%
06:00 +7°C° 0 mm 3 mps 754 mmHg 75%
07:00 +7°C° 0 mm 4 mps 754 mmHg 68%
08:00 +10°C° 0 mm 4 mps 753 mmHg 60%
09:00 +11°C° 0 mm 4 mps 753 mmHg 52%
10:00 +12°C° 0 mm 4 mps 753 mmHg 43%
11:00 +13°C° 0 mm 4 mps 753 mmHg 43%
12:00 +14°C° 0 mm 4 mps 752 mmHg 43%
13:00 +15°C° 0 mm 4 mps 752 mmHg 42%
14:00 +15°C° 0 mm 4 mps 751 mmHg 43%
15:00 +17°C° 0 mm 4 mps 751 mmHg 45%
16:00 +17°C° 0 mm 3 mps 750 mmHg 46%
17:00 +16°C° 0 mm 3 mps 750 mmHg 51%
18:00 +15°C° 0 mm 2 mps 750 mmHg 57%
19:00 +14°C° 0 mm 1 mps 749 mmHg 62%
20:00 +13°C° 0.1 mm 1 mps 749 mmHg 68%
21:00 +12°C° 0.1 mm 1 mps 749 mmHg 75%
22:00 +11°C° 0.1 mm 1 mps 749 mmHg 81%
23:00 +10°C° 0 mm 2 mps 748 mmHg 84%

22 May, Saturday

Time Temperature Precipitation Wind Pressure Humidity
00:00 +10°C° 0 mm 2 mps 748 mmHg 87%
01:00 +9°C° 0 mm 3 mps 747 mmHg 90%
02:00 +9°C° 0 mm 3 mps 746 mmHg 90%
03:00 +9°C° 0 mm 3 mps 746 mmHg 90%
04:00 +9°C° 0 mm 3 mps 745 mmHg 89%
05:00 +10°C° 0 mm 4 mps 745 mmHg 84%
06:00 +11°C° 0 mm 4 mps 745 mmHg 79%
07:00 +12°C° 0 mm 5 mps 744 mmHg 74%
08:00 +10°C° 0.3 mm 5 mps 745 mmHg 81%
09:00 +11°C° 0.3 mm 4 mps 745 mmHg 87%
10:00 +11°C° 0.3 mm 4 mps 745 mmHg 93%
11:00 +12°C° 0.2 mm 4 mps 745 mmHg 84%
12:00 +13°C° 0.2 mm 4 mps 745 mmHg 76%
13:00 +14°C° 0.2 mm 4 mps 746 mmHg 67%
14:00 +14°C° 0.1 mm 4 mps 746 mmHg 65%
15:00 +14°C° 0.1 mm 4 mps 745 mmHg 63%
16:00 +15°C° 0.1 mm 4 mps 745 mmHg 61%
17:00 +14°C° 0.2 mm 4 mps 746 mmHg 66%
18:00 +12°C° 0.2 mm 4 mps 746 mmHg 71%
19:00 +11°C° 0.2 mm 4 mps 746 mmHg 77%
20:00 +10°C° 0 mm 3 mps 746 mmHg 81%
21:00 +9°C° 0 mm 3 mps 746 mmHg 85%
22:00 +8°C° 0 mm 2 mps 747 mmHg 89%
23:00 +7°C° 0 mm 2 mps 747 mmHg 89%

23 May, Sunday

Time Temperature Precipitation Wind Pressure Humidity
00:00 +7°C° 0 mm 2 mps 747 mmHg 88%
01:00 +7°C° 0 mm 2 mps 746 mmHg 88%
02:00 +6°C° 0 mm 2 mps 746 mmHg 89%
03:00 +6°C° 0 mm 2 mps 746 mmHg 90%
04:00 +6°C° 0 mm 2 mps 746 mmHg 90%
05:00 +8°C° 0 mm 3 mps 746 mmHg 85%
06:00 +9°C° 0 mm 3 mps 747 mmHg 79%
07:00 +11°C° 0 mm 4 mps 747 mmHg 73%
08:00 +12°C° 0 mm 4 mps 747 mmHg 69%
09:00 +13°C° 0 mm 5 mps 747 mmHg 65%
10:00 +14°C° 0 mm 5 mps 747 mmHg 61%
11:00 +14°C° 0 mm 5 mps 747 mmHg 60%
12:00 +14°C° 0 mm 5 mps 747 mmHg 60%
13:00 +14°C° 0 mm 5 mps 747 mmHg 59%
14:00 +14°C° 0.1 mm 5 mps 748 mmHg 62%
15:00 +14°C° 0.1 mm 4 mps 748 mmHg 65%
16:00 +13°C° 0.1 mm 4 mps 748 mmHg 67%
17:00 +13°C° 0.1 mm 4 mps 748 mmHg 72%
18:00 +12°C° 0.1 mm 3 mps 749 mmHg 76%
19:00 +11°C° 0.1 mm 3 mps 749 mmHg 80%
20:00 +10°C° 0 mm 3 mps 749 mmHg 85%
21:00 +9°C° 0 mm 3 mps 750 mmHg 90%
22:00 +8°C° 0 mm 3 mps 750 mmHg 94%
23:00 +8°C° 0 mm 3 mps 750 mmHg 95%
Show more